Flag for South Africa Weather past 2 weeks in Bloemfontein, South Africa

Now
84 °F

Passing clouds.


Feels Like: 82 °F
Forecast: 61 / 87 °F
Wind: 8 mph from North

Location: Bloemfontein Airport

Current Time: Dec 21, 2014 at 12:53:52 PM

Latest Report: Dec 21, 2014 at 12:00 PM


Visibility: N/A

Pressure: 30.04 "Hg

Humidity: 25%

Dew point: 45 °F

Location of BloemfonteinLocation

Historic Weather in Bloemfontein — Graph

°F

Bloemfontein temperature yesterday

Maximum temperature yesterday: 88 °F (at 2:00 PM)
Minimum temperature yesterday: 52 °F (at 5:00 AM)
Average temperature yesterday: 74 °F

Past Weeks' High & Low Weather Summary

 TemperatureHumidityPressure
High90 °F (Dec 6, 2:00 PM)88% (Dec 9, 5:00 AM)30.24 "Hg (Dec 9, 5:00 AM)
Low50 °F (Dec 21, 5:00 AM)9% (Dec 20, 5:00 PM)29.92 "Hg (Dec 19, 4:00 PM)
Average70 °F57%30.07 "Hg
* Reported Dec 6 11:00 AM — Dec 21 11:00 AM, Bloemfontein, Weather by CustomWeather, © 2014

Note: Actual official high and low records may vary slightly from our data, if they occured in-between our weather recording intervals... More about our weather records

Advertising

Bloemfontein weather history for previous 24 hours

 ConditionsComfort  
Time TempWeatherWind HumidityBarometerVisibility
11:00 AM
Dec 21
81 °FPassing clouds.7 mph28%30.07 "HgN/A
10:00 AM77 °FPassing clouds.7 mph36%30.07 "HgN/A
9:00 AM73 °FPassing clouds.6 mph41%30.07 "HgN/A
8:00 AM66 °FSunny.6 mph56%30.07 "Hg10 mi
7:00 AM61 °FSunny.7 mph59%30.07 "Hg10 mi
6:00 AM54 °FSunny.2 mph67%30.04 "Hg10 mi
5:00 AM50 °FCool.No wind67%30.04 "HgN/A
4:00 AM54 °FCool.3 mph63%30.01 "HgN/A
3:00 AM59 °FRefreshingly cool.2 mph51%30.01 "HgN/A
2:00 AM57 °FRefreshingly cool.No wind55%30.04 "HgN/A
1:00 AM61 °FRefreshingly cool.3 mph45%30.04 "HgN/A
12:00 AM68 °FMild.6 mph26%30.04 "HgN/A
11:00 PM
Dec 20
72 °FMild.3 mph16%30.07 "HgN/A
10:00 PM70 °FMild.5 mph25%30.04 "HgN/A
9:00 PM72 °FMild.5 mph23%30.01 "HgN/A
8:00 PM77 °FClear.3 mph13%30.01 "Hg10 mi
7:00 PM84 °FClear.12 mph12%29.98 "Hg10 mi
6:00 PM86 °FPassing clouds.17 mph13%29.98 "HgN/A
5:00 PM88 °FSunny.16 mph9%29.98 "Hg10 mi
4:00 PM88 °FPassing clouds.17 mph15%29.98 "HgN/A
3:00 PM88 °FPassing clouds.20 mph15%30.01 "HgN/A
2:00 PM88 °FSunny.10 mph12%30.04 "Hg10 mi
1:00 PM86 °FPassing clouds.14 mph20%30.07 "HgN/A
12:00 PM86 °FPassing clouds.14 mph18%30.07 "HgN/A
Weather by CustomWeather, © 2014

See weather overviewHow to use our weather pages